Content
SEND FEEDBACK

Daily
Averages
Monthly
Summary
Philippines

QUEZON CITY, PHILIPPINES


Home > Asia > Philippines
Elevation: 46 meters     Latitude: 14 39N     Longitude: 121 03E

WEATHER
 
SELECT A DAY
Number of Records: 172,482;   Date Range: 7/1/96 - 7/26/14
 
SHARE

PRINT THIS DATA

[ ← Previous Day ]
WEATHER ALMANAC - 5 OCTOBER, 2013
[ Next Day → ]
[ °F ]   °C
Weather ElementAverageHighLow
Temperature28.2 °C31 °C (1:00 pm)26 °C (3:00 am)
Dewpoint23.5 °C24.4 °C (8:00 pm)22 °C (12:00 pm)
Humidity74.7 %84 % (9:00 pm)58 % (11:00 am)
Barometer1006.1 hPa1007.8 hPa (11:00 pm)1004.1 hPa (2:00 pm)
Wind Speed10.9 km/h22.2 km/h (4:00 pm)
Weather ElementAverage
Visibility9.2 km
Wind DirectionSSW (189 °)

Weather ElementTotal
Precipitation---
Cooling Degree Days10.2 (Base 18.3)
Growing Degree Days18.5 (Base 10)
Averaged from 29 records on 5 October, 2013
WEATHER CONDITIONS BREAKOUT
WIND DIRECTION BREAKOUT
WEATHER BY HOUR - 5 OCTOBER, 2013
[ °F ]   °C
Local TimeTemperatureDewpointHumidityBarometerVisibilityWind DirectionWind SpeedGust SpeedPrecipitationEventsConditions
1:00 AM27 °C23 °C79 %1007.1 hPa9 kmNNE (20°)9.3 km/hOvercast
2:00 AM26.7 °C23.3 °C76 %1006.4 hPa9.7 kmESE (110°)7.2 km/hHaze
2:00 AM27 °C23 °C79 %1006.1 hPa9 kmNorth (350°)7.4 km/hScattered Clouds
3:00 AM26 °C23 °C83 %1006.1 hPa9 kmVariable1.9 km/hScattered Clouds
4:00 AM26 °C23 °C83 %1005.1 hPa9 kmNorth (10°)7.4 km/hScattered Clouds
5:00 AM26.1 °C23.3 °C79 %1005.8 hPa9.7 kmNorth (10°)7.2 km/hHaze
5:00 AM26 °C23 °C83 %1006.1 hPa9 kmNorth (10°)7.4 km/hScattered Clouds
6:00 AM26 °C23 °C83 %1006.1 hPa8 kmNorth (10°)7.4 km/hScattered Clouds
7:00 AM27 °C23 °C79 %1007.1 hPa8 kmNE (40°)7.4 km/hScattered Clouds
8:00 AM28 °C23 °C74 %1007.1 hPa8 kmVariable5.6 km/hScattered Clouds
9:00 AM29 °C24 °C74 %1007.1 hPa9 kmNW (310°)14.8 km/hScattered Clouds
10:00 AM29 °C24 °C74 %1007.1 hPa9 kmWNW (300°)14.8 km/hScattered Clouds
11:00 AM30 °C22.8 °C58 %1007.1 hPa9.7 kmWNW (290°)14.3 km/hHaze
11:00 AM30 °C23 °C66 %1007.1 hPa10 kmWNW (300°)13 km/hScattered Clouds
12:00 PM30 °C22 °C62 %1006.1 hPa10 kmWNW (290°)13 km/hScattered Clouds
1:00 PM31 °C24 °C66 %1005.1 hPa10 kmWest (280°)14.8 km/hScattered Clouds
2:00 PM30.6 °C23.9 °C59 %1005.1 hPa9.7 kmWest (280°)18 km/hHaze
2:00 PM31 °C24 °C66 %1004.1 hPa10 kmWest (280°)16.7 km/hScattered Clouds
3:00 PM30 °C24 °C70 %1004.1 hPa10 kmWest (260°)18.5 km/hScattered Clouds
4:00 PM30 °C23 °C66 %1004.1 hPa10 kmWSW (250°)22.2 km/hScattered Clouds
5:00 PM29 °C24 °C74 %1004.1 hPa10 kmWSW (250°)18.5 km/hPartly Cloudy
6:00 PM29 °C24 °C74 %1005.1 hPa10 kmSW (230°)11.1 km/hScattered Clouds
7:00 PM29 °C24 °C74 %1005.1 hPa8 kmSW (220°)9.3 km/hScattered Clouds
8:00 PM28.3 °C24.4 °C73 %1006.4 hPa9.7 kmSW (220°)7.2 km/hHaze
8:00 PM28 °C24 °C79 %1006.1 hPa8 kmSW (220°)9.3 km/hPartly Cloudy
9:00 PM27 °C24 °C84 %1007.1 hPa9 kmSW (220°)11.1 km/hScattered Clouds
10:00 PM27 °C24 °C84 %1007.1 hPa9 kmSW (220°)9.3 km/hPartly Cloudy
11:00 PM26.7 °C23.9 °C81 %1007.8 hPa9.7 kmWSW (250°)7.2 km/hHaze
11:00 PM27 °C24 °C84 %1007.1 hPa9 kmWSW (250°)7.4 km/hPartly Cloudy
Hourly data recorded from RPLL, located 0 kilometers away from Quezon City, Philippines







STORIES FROM OUR PARTNERS